User: anonymous   Login
Location: Brainerd
(46.3580°N, 94.2010°W)
Time: 06:25:56
(UTC-05:00)
Language:

CZ-4C R/B - Orbit

View from above orbital plane
View from above orbital plane
View from above satellite
View from above satellite

Ground track
Ground track

The orbit data is extracted from the following two-line orbital elements,

1 32290U 07055B   15144.48469777  .00003593  00000-0  12284-3 0  9990
2 32290 097.5427 227.4105 0076759 292.1853 195.8431 15.28162187416280
Epoch (UTC): 24 May 2015 11:37:57
Eccentricity: 0.0076759
inclination: 97.5427°
perigee height: 428 km
apogee height: 534 km
right ascension of ascending node: 227.4105°
argument of perigee: 292.1853°
revolutions per day: 15.28162187
mean anomaly at epoch: 195.8431°
orbit number at epoch: 41628

The dashed part of the orbit path shows where the satellite is in the earth's shadow,  

DLR